Location: *
(33.3200°N, 8.3381°W)
Time: 19:55:36
(UTC+00:00)

HJ-1C - Pass Details

Date: 09 April 2020
Orbit: 431 x 447 km, 97.2° (Epoch: 28 May)

Event Time Altitude Azimuth Distance (km) Brightness Sun altitude
Rises 19:50:58 0° 172° (S) 2,421 6.9 -11.2°
Reaches altitude 10° 19:52:59 10° 175° (S) 1,558 5.9 -11.6°
Maximum altitude 19:56:18 70° 260° (W) 478 3.7 -12.2°
Drops below altitude 10° 19:59:40 10° 344° (NNW) 1,577 6.6 -12.9°
Sets 20:01:43 0° 347° (NNW) 2,454 7.6 -13.3°
